VK2XSE Weather Reports


Display with metric or nautical units.
time (UTC)temp
F
wind
direction
speed
MPH
gust
MPH
rain 1hr
in
rain 24hr
in
rain mn
in
humidity
%
barometer
mb
20260905181017 48 248 4.0 7.0 0.00 0.09 0.00 89 1018.7
20260905180017 49 248 4.0 8.0 0.00 0.09 0.00 89 1018.6
20260905175017 49 248 5.0 8.0 0.00 0.09 0.00 88 1018.5
20260905174017 49 248 5.0 10.0 0.00 0.09 0.00 88 1018.4
20260905173017 49 248 4.0 8.0 0.00 0.09 0.00 87 1018.3
20260905172017 50 248 4.0 8.0 0.00 0.09 0.00 86 1018.4
20260905171019 50 248 4.0 7.0 0.00 0.09 0.00 86 1018.4
20260905170019 50 0 4.0 8.0 0.00 0.09 0.00 85 1018.5
20260905165019 50 0 4.0 8.0 0.00 0.09 0.00 85 1018.3
20260905164019 51 0 6.0 10.0 0.00 0.09 0.00 84 1018.4
20260905163019 51 0 5.0 11.0 0.00 0.09 0.00 84 1018.4
20260905162019 51 248 5.0 8.0 0.00 0.09 0.00 83 1018.1
20260905161019 52 248 6.0 12.0 0.00 0.09 0.00 82 1018.0
20260905160019 52 248 5.0 11.0 0.00 0.09 0.00 81 1017.9
20260905155018 53 248 6.0 12.0 0.00 0.09 0.00 80 1017.9
20260905154019 53 248 7.0 13.0 0.00 0.09 0.00 79 1017.9
20260905153018 53 248 7.0 12.0 0.00 0.09 0.00 78 1017.7
20260905152019 53 248 7.0 12.0 0.00 0.09 0.00 78 1017.6
20260905151018 53 248 7.0 13.0 0.00 0.09 0.00 78 1017.6
20260905150018 53 248 7.0 13.0 0.00 0.09 0.00 77 1017.4
20260905145018 53 248 8.0 15.0 0.00 0.09 0.00 77 1017.4
20260905144018 53 248 8.0 13.0 0.00 0.09 0.00 76 1017.2
20260905143018 53 248 7.0 14.0 0.00 0.09 0.00 76 1017.0
20260905142018 53 248 7.0 13.0 0.00 0.09 0.00 75 1016.8
20260905141018 53 248 7.0 11.0 0.00 0.09 0.00 75 1016.8
20260905140021 54 248 7.0 12.0 0.00 0.09 0.09 74 1016.7
20260905135018 54 248 8.0 13.0 0.00 0.09 0.09 73 1016.7
20260905134018 55 248 7.0 14.0 0.00 0.09 0.09 72 1016.7
20260905133018 55 248 9.0 16.0 0.00 0.09 0.09 71 1016.6
20260905132018 55 248 10.0 16.0 0.00 0.09 0.09 71 1016.6
20260905131018 55 248 8.0 16.0 0.00 0.09 0.09 70 1016.4
20260905130018 56 248 8.0 19.0 0.00 0.09 0.09 69 1016.2
20260905125018 56 248 10.0 18.0 0.00 0.09 0.09 68 1016.2
20260905124018 56 248 9.0 16.0 0.00 0.09 0.09 68 1016.0
20260905123018 56 248 8.0 14.0 0.00 0.09 0.09 67 1016.1
20260905122018 57 248 8.0 13.0 0.00 0.09 0.09 67 1016.1
20260905121018 57 248 10.0 19.0 0.00 0.09 0.09 66 1016.1
20260905120018 57 248 9.0 19.0 0.00 0.09 0.09 67 1016.0
20260905115018 57 248 7.0 13.0 0.00 0.09 0.09 69 1015.9
20260905114018 57 248 6.0 13.0 0.00 0.09 0.09 68 1015.7
20260905113018 57 248 7.0 13.0 0.00 0.09 0.09 68 1015.5
20260905112018 57 248 6.0 12.0 0.00 0.09 0.09 68 1015.3
20260905111018 58 248 7.0 14.0 0.00 0.09 0.09 66 1015.1
20260905110018 59 248 8.0 16.0 0.00 0.09 0.09 65 1015.1
20260905105018 59 248 10.0 17.0 0.00 0.09 0.09 64 1015.0
20260905104018 59 248 10.0 18.0 0.00 0.09 0.09 63 1014.8
20260905103018 60 248 8.0 17.0 0.00 0.09 0.09 64 1014.6
20260905102018 60 248 8.0 14.0 0.00 0.09 0.09 63 1014.5
20260905101017 60 248 10.0 16.0 0.00 0.09 0.09 61 1014.1
20260905100018 61 248 7.0 13.0 0.00 0.09 0.09 58 1013.8
20260905095018 61 248 6.0 10.0 0.00 0.09 0.09 58 1013.5
20260905094018 61 248 6.0 11.0 0.00 0.09 0.09 58 1013.3
20260905093018 61 248 8.0 14.0 0.00 0.09 0.09 57 1013.1
20260905092017 62 248 10.0 15.0 0.00 0.09 0.09 57 1012.9
20260905091017 61 248 8.0 16.0 0.00 0.09 0.09 59 1012.7
20260905090017 61 248 6.0 11.0 0.00 0.09 0.09 61 1012.6
20260905085017 62 248 7.0 18.0 0.00 0.09 0.09 60 1012.3
20260905084017 62 248 7.0 12.0 0.00 0.09 0.09 60 1012.2
20260905083018 62 248 6.0 10.0 0.00 0.09 0.09 61 1012.1
20260905082017 62 248 4.0 9.0 0.00 0.09 0.09 62 1011.9
20260905081017 63 248 6.0 10.0 0.00 0.09 0.09 62 1011.6
20260905080018 64 248 5.0 9.0 0.00 0.09 0.09 62 1011.4
20260905075017 64 0 5.0 11.0 0.00 0.09 0.09 62 1011.3
20260905074017 65 248 5.0 8.0 0.00 0.09 0.09 61 1011.2
20260905073017 65 0 5.0 9.0 0.00 0.09 0.09 61 1011.0
20260905072017 66 0 5.0 12.0 0.00 0.09 0.09 60 1010.9
20260905071017 66 0 7.0 15.0 0.00 0.09 0.09 59 1010.8
20260905070017 66 0 6.0 14.0 0.00 0.09 0.09 61 1010.8
20260905065018 66 0 7.0 12.0 0.00 0.09 0.09 62 1010.6
20260905064017 67 248 8.0 14.0 0.00 0.09 0.09 61 1010.5
20260905063017 67 248 7.0 10.0 0.00 0.09 0.09 59 1010.5
20260905062017 68 248 7.0 13.0 0.00 0.09 0.09 57 1010.4
20260905061017 68 248 8.0 16.0 0.00 0.09 0.09 58 1010.4
20260905060017 68 270 7.0 13.0 0.00 0.09 0.09 60 1010.4
20260905055017 68 248 9.0 15.0 0.00 0.09 0.09 60 1010.4
20260905054017 68 248 9.0 15.0 0.00 0.09 0.09 61 1010.5
20260905053017 68 248 11.0 17.0 0.00 0.09 0.09 60 1010.7
20260905052017 67 248 8.0 17.0 0.00 0.09 0.09 62 1010.7
20260905051019 67 270 9.0 16.0 0.00 0.09 0.09 63 1010.7
20260905050019 68 270 9.0 14.0 0.00 0.09 0.09 61 1010.7
20260905045019 68 270 9.0 21.0 0.00 0.09 0.09 60 1010.7
20260905044019 68 0 7.0 16.0 0.00 0.09 0.09 62 1010.6
20260905043019 67 270 8.0 15.0 0.00 0.09 0.09 69 1010.3
20260905042019 66 270 9.0 15.0 0.00 0.09 0.09 71 1010.3
20260905041019 66 270 8.0 15.0 0.00 0.09 0.09 74 1010.4
20260905040019 66 293 10.0 19.0 0.00 0.09 0.09 75 1010.2
20260905035019 65 270 8.0 19.0 0.00 0.09 0.09 77 1010.0
20260905034019 65 270 9.0 13.0 0.00 0.09 0.09 77 1010.0
20260905033019 64 293 7.0 12.0 0.01 0.09 0.09 80 1009.8
20260905032019 64 293 6.0 10.0 0.02 0.09 0.09 82 1010.1
20260905031019 63 293 5.0 10.0 0.03 0.09 0.09 84 1010.4
20260905030019 62 315 4.0 10.0 0.04 0.09 0.09 86 1010.9
20260905025018 61 315 4.0 7.0 0.06 0.09 0.09 87 1011.0
20260905024019 60 315 4.0 9.0 0.06 0.09 0.09 86 1011.4
20260905023018 60 315 4.0 8.0 0.07 0.09 0.09 86 1011.3
20260905022018 60 293 5.0 10.0 0.08 0.08 0.08 85 1012.0
20260905021018 61 315 4.0 9.0 0.06 0.06 0.06 85 1012.4
20260905020018 61 293 4.0 8.0 0.06 0.06 0.06 84 1013.0
20260905015018 61 293 5.0 9.0 0.04 0.04 0.04 83 1013.3
20260905014018 62 270 5.0 10.0 0.03 0.03 0.03 82 1013.1
20260905013018 63 270 4.0 8.0 0.02 0.02 0.02 80 1013.7
20260905012018 64 270 5.0 11.0 0.00 0.00 0.00 76 1013.8
20260905011018 64 248 6.0 13.0 0.00 0.00 0.00 73 1013.5
20260905010018 64 248 6.0 13.0 0.00 0.00 0.00 73 1013.6
20260905005018 65 248 5.0 10.0 0.00 0.00 0.00 73 1013.8
20260905004018 65 248 8.0 13.0 0.00 0.00 0.00 71 1013.8
20260905003018 66 248 8.0 15.0 0.00 0.00 0.00 70 1013.7
20260905002018 67 248 9.0 15.0 0.00 0.00 0.00 69 1013.9
20260905001018 67 248 11.0 18.0 0.00 0.00 0.00 68 1013.9
20260905000018 66 248 7.0 12.0 0.00 0.00 0.00 69 1014.0
20260904235018 66 248 6.0 11.0 0.00 0.00 0.00 68 1014.1
20260904234018 65 270 4.0 8.0 0.00 0.00 0.00 69 1013.9
20260904233018 65 248 6.0 13.0 0.00 0.00 0.00 69 1013.8
20260904232018 65 248 6.0 10.0 0.00 0.00 0.00 70 1014.1
20260904231018 65 248 5.0 10.0 0.00 0.00 0.00 69 1013.8
20260904230028 66 248 5.0 11.0 0.00 0.00 0.00 67 1013.7
20260904225018 66 248 5.0 10.0 0.00 0.00 0.00 66 1013.6
20260904224018 67 225 5.0 9.0 0.00 0.00 0.00 64 1013.7
20260904223018 68 293 5.0 8.0 0.00 0.00 0.00 56 1012.8
20260904222018 68 315 3.0 7.0 0.00 0.00 0.00 58 1012.0
20260904221018 67 315 3.0 7.0 0.00 0.00 0.00 60 1011.7
20260904220017 67 315 3.0 6.0 0.00 0.00 0.00 61 1012.0
20260904215018 67 315 4.0 8.0 0.00 0.00 0.00 63 1012.2
20260904214018 66 315 3.0 6.0 0.00 0.00 0.00 65 1012.1
20260904213017 66 315 2.0 6.0 0.00 0.00 0.00 67 1011.6
20260904212017 67 315 4.0 9.0 0.00 0.00 0.00 66 1011.8
20260904211017 67 315 2.0 5.0 0.00 0.00 0.00 62 1011.4
20260904210017 67 0 2.0 5.0 0.00 0.00 0.00 63 1011.3
20260904205017 67 315 2.0 6.0 0.00 0.00 0.00 65 1011.2
20260904204018 66 315 3.0 9.0 0.00 0.00 0.00 65 1011.2
20260904203018 65 293 2.0 5.0 0.00 0.00 0.00 67 1011.1
20260904202017 65 315 3.0 6.0 0.00 0.00 0.00 68 1011.3
20260904201018 64 315 3.0 5.0 0.00 0.00 0.00 69 1011.3
20260904200017 64 315 3.0 8.0 0.00 0.00 0.00 68 1011.4
20260904195017 64 315 3.0 7.0 0.00 0.00 0.00 64 1011.6
20260904194018 65 338 1.0 5.0 0.00 0.00 0.00 63 1011.0
20260904193018 65 315 4.0 10.0 0.00 0.00 0.00 62 1011.6
20260904192017 65 315 5.0 9.0 0.00 0.00 0.00 64 1011.8
20260904191017 65 0 4.0 9.0 0.00 0.00 0.00 66 1011.1
20260904190017 65 293 4.0 8.0 0.00 0.00 0.00 62 1011.7
20260904185017 65 293 5.0 11.0 0.00 0.00 0.00 61 1012.1
20260904184017 64 0 3.0 9.0 0.00 0.00 0.00 60 1011.8
20260904183017 63 315 2.0 5.0 0.00 0.00 0.00 62 1012.0
20260904182017 61 338 2.0 8.0 0.00 0.00 0.00 65 1011.9